Location: Poughquag
(41.6090°N, 73.6820°W)
Time: 17:17:25
(UTC-05:00)

OTV 5 (USA 277) - Visible Passes

Search period start: 22 November 2017 00:00
Search period end: 02 December 2017 00:00
Orbit: 404 x 417 km, 43.0° (Epoch: 07 September)

Date Brightness Start Highest point End Pass type
(mag) Time Alt. Az. Time Alt. Az. Time Alt. Az.
22 Nov ? 04:56:03 14° S 04:56:03 14° S 04:56:58 10° SSE visible
30 Nov ? 17:59:47 10° SSE 18:00:45 12° SSE 18:00:45 12° SSE visible
01 Dec ? 18:43:48 10° SW 18:45:03 19° SSW 18:45:03 19° SSW visible
